GPS IIA-3

operational
NORAD ID: 21890 Int'l Des: 1992-009 Owner: AFSSD2 Country: US Constellation: GPS
MEOCIRCULARGNSS

Über GPS IIA-3

Beschreibung wird geladen...

Live-Position

3D-Globus wird geladen...

Nächste Überflüge

Höhenverlauf

Altitude vs Time

uPlot chart will show altitude changes over time

Zweizeiliger Elementsatz

1 21890U 92009A 26063.20973653 -.00000004 00000-0 00000+0 0 9996
2 21890 54.2182 170.0225 0051769 59.5559 305.7095 1.91828586244082
Epoch: 4. März 2026 • Age: 18 hours

Aktueller Status

Höhe 20883.8 km
Geschwindigkeit 3.83 km/s
Subsatellitenpunkt 10.75°N, 107.78°E
Startdatum 23. Feb. 1992
Alter 34 years
Typ navigation

Technische Details

Klassifizierung Payload
Masse 860.00 kg
Trockenmasse 860.00 kg
Gesamtmasse 1881.00 kg
Länge 2.40 m
Durchmesser 1.80 m
Spannweite 5.30 m
Form Box + 2 Pan
Hersteller RWISB
Bus-Typ GPS IIA
Phasenstatus In Orbit
Besitzer/Staat AFSSD2/US

Große Konstellationen

Loading constellations...